Terminal Aerodrome Forecast
Issued by NWS Grand Forks, ND

Home | Current Version | Previous Version | Text Only | Print | Product List | Glossary Off
Versions: 1 2 3 4 5 6 7 8 9 10 11 12 13 14 15 16

000
FTUS43 KFGF 251100
TAFGFK
TAF
KGFK 251120Z 2512/2612 14007KT P6SM SCT100 BKN250
     FM251400 26010KT P6SM BKN050
     FM251900 28011KT P6SM SKC=

USA.gov is the U.S. government's official web portal to all federal, state and local government web resources and services.